StationID,Date,MaxTemp,MinTemp,Precipitation,Snowfall,SnowDepth
"USR0000ABEV","1990-05-29",78.08,55.94,,,
"USR0000ABEV","1990-05-30",66.02,51.08,,,
"USR0000ABEV","1990-05-31",77.00,53.06,,,
"USR0000ABEV","1990-06-01",75.92,44.06,,,
"USR0000ABEV","1990-06-02",84.92,39.92,,,
"USR0000ABEV","1990-06-03",87.08,44.06,,,
"USR0000ABEV","1990-06-04",66.02,53.96,,,
"USR0000ABEV","1990-06-05",71.96,39.92,,,
"USR0000ABEV","1990-06-06",68.00,37.04,,,
"USR0000ABEV","1990-06-07",64.94,33.08,,,
"USR0000ABEV","1990-06-08",62.96,35.96,,,
"USR0000ABEV","1990-06-09",57.92,33.08,,,
"USR0000ABEV","1990-06-10",68.00,39.02,,,
"USR0000ABEV","1990-06-11",75.92,35.96,,,
"USR0000ABEV","1990-06-12",73.94,42.08,,,
"USR0000ABEV","1990-06-13",75.92,51.08,,,
"USR0000ABEV","1990-06-14",66.02,51.08,,,
"USR0000ABEV","1990-06-15",66.02,41.00,,,
"USR0000ABEV","1990-06-16",66.92,37.04,,,
"USR0000ABEV","1990-06-17",69.08,48.02,,,
"USR0000ABEV","1990-06-18",69.08,44.06,,,
"USR0000ABEV","1990-06-19",71.06,41.00,,,
"USR0000ABEV","1990-06-20",69.98,42.08,,,
"USR0000ABEV","1990-06-21",69.08,48.92,,,
"USR0000ABEV","1990-06-22",73.04,37.94,,,
"USR0000ABEV","1990-06-23",64.94,50.00,,,
"USR0000ABEV","1990-06-24",75.02,44.96,,,
"USR0000ABEV","1990-06-25",82.04,42.08,,,
"USR0000ABEV","1990-06-26",84.92,44.96,,,
"USR0000ABEV","1990-06-27",78.98,55.94,,,
"USR0000ABEV","1990-06-28",73.04,46.94,,,
"USR0000ABEV","1990-06-29",80.06,46.04,,,
"USR0000ABEV","1990-06-30",82.94,44.96,,,
"USR0000ABEV","1990-07-01",86.00,42.98,,,
"USR0000ABEV","1990-07-02",91.04,48.92,,,
"USR0000ABEV","1990-07-03",89.06,48.92,,,
"USR0000ABEV","1990-07-04",89.06,48.92,,,
"USR0000ABEV","1990-07-05",89.96,46.94,,,
"USR0000ABEV","1990-07-06",82.04,53.06,,,
"USR0000ABEV","1990-07-07",80.96,55.04,,,
"USR0000ABEV","1990-07-08",73.04,51.98,,,
"USR0000ABEV","1990-07-09",69.08,51.08,,,
"USR0000ABEV","1990-07-10",66.02,46.04,,,
"USR0000ABEV","1990-07-11",60.98,50.00,,,
"USR0000ABEV","1990-07-12",62.06,50.00,,,
"USR0000ABEV","1990-07-13",71.96,44.96,,,
"USR0000ABEV","1990-07-14",75.92,41.00,,,
"USR0000ABEV","1990-07-15",77.00,44.06,,,
"USR0000ABEV","1990-07-16",78.08,42.98,,,
"USR0000ABEV","1990-07-17",80.96,44.06,,,
"USR0000ABEV","1990-07-18",80.96,46.04,,,
"USR0000ABEV","1990-07-19",84.92,46.94,,,
"USR0000ABEV","1990-07-20",84.92,48.02,,,
"USR0000ABEV","1990-07-21",78.98,46.94,,,
"USR0000ABEV","1990-07-22",80.06,42.08,,,
"USR0000ABEV","1990-07-23",84.92,41.00,,,
"USR0000ABEV","1990-07-24",71.96,44.06,,,
"USR0000ABEV","1990-07-25",60.98,46.94,,,
"USR0000ABEV","1990-07-26",51.98,46.04,,,
"USR0000ABEV","1990-07-27",62.06,42.98,,,
"USR0000ABEV","1990-07-28",60.08,37.94,,,
"USR0000ABEV","1990-07-29",69.98,46.94,,,
"USR0000ABEV","1990-07-30",64.94,39.92,,,
"USR0000ABEV","1990-07-31",69.08,46.94,,,
"USR0000ABEV","1990-08-01",75.02,39.02,,,
"USR0000ABEV","1990-08-02",77.00,37.94,,,
"USR0000ABEV","1990-08-03",77.00,42.98,,,
"USR0000ABEV","1990-08-04",64.04,35.06,,,
"USR0000ABEV","1990-08-05",71.06,30.92,,,
"USR0000ABEV","1990-08-06",73.04,32.00,,,
"USR0000ABEV","1990-08-07",69.08,33.98,,,
"USR0000ABEV","1990-08-08",69.98,37.94,,,
"USR0000ABEV","1990-08-09",73.04,33.08,,,
"USR0000ABEV","1990-08-10",73.04,39.92,,,
"USR0000ABEV","1990-08-11",80.06,48.92,,,
"USR0000ABEV","1990-08-12",84.02,44.06,,,
"USR0000ABEV","1990-08-13",84.92,39.92,,,
"USR0000ABEV","1990-08-14",82.94,39.02,,,
"USR0000ABEV","1990-08-15",69.98,42.98,,,
"USR0000ABEV","1990-08-16",71.96,44.06,,,
"USR0000ABEV","1990-08-17",69.98,50.00,,,
"USR0000ABEV","1990-08-18",69.08,53.96,,,
"USR0000ABEV","1990-08-19",64.04,50.00,,,
"USR0000ABEV","1990-08-20",62.96,30.92,,,
"USR0000ABEV","1990-08-21",64.94,33.98,,,
"USR0000ABEV","1990-08-22",71.96,33.08,,,
"USR0000ABEV","1990-08-23",69.08,30.02,,,
"USR0000ABEV","1990-08-24",62.96,51.08,,,
"USR0000ABEV","1990-08-25",68.00,46.94,,,
"USR0000ABEV","1990-08-26",64.04,48.92,,,
"USR0000ABEV","1990-08-27",60.08,46.04,,,
"USR0000ABEV","1990-08-28",57.92,44.96,,,
"USR0000ABEV","1990-08-29",53.96,44.96,,,
"USR0000ABEV","1990-08-30",55.04,35.96,,,
"USR0000ABEV","1990-08-31",53.06,30.02,,,
"USR0000ABEV","1990-09-01",57.02,33.98,,,
"USR0000ABEV","1990-09-02",53.96,23.00,,,
"USR0000ABEV","1990-09-03",42.08,23.00,,,
"USR0000ABEV","1990-09-04",42.98,35.06,,,
"USR0000ABEV","1990-09-05",51.98,35.96,,,
"USR0000ABEV","1990-09-06",51.98,42.98,,,
"USR0000ABEV","1990-09-07",48.02,39.02,,,
"USR0000ABEV","1990-09-08",48.02,17.96,,,
"USR0000ABEV","1990-09-09",48.92,14.00,,,
"USR0000ABEV","1990-09-10",44.96,12.02,,,
"USR0000ABEV","1990-09-11",51.98,15.08,,,
"USR0000ABEV","1990-09-12",37.94,19.94,,,
"USR0000ABEV","1990-09-13",48.92,35.06,,,
"USR0000ABEV","1990-09-14",50.00,41.00,,,
"USR0000ABEV","1990-09-15",51.08,24.98,,,
"USR0000ABEV","1990-09-16",53.06,15.98,,,
"USR0000ABEV","1990-09-17",51.08,24.08,,,
"USR0000ABEV","1990-09-18",51.08,19.04,,,
"USR0000ABEV","1990-09-19",50.00,21.02,,,
"USR0000ABEV","1990-09-20",57.92,37.04,,,
"USR0000ABEV","1990-09-21",57.02,28.94,,,
"USR0000ABEV","1990-09-22",46.94,24.98,,,
"USR0000ABEV","1990-09-23",48.92,23.00,,,
"USR0000ABEV","1990-09-24",42.98,21.92,,,
"USR0000ABEV","1990-09-25",41.00,14.00,,,
"USR0000ABEV","1990-09-26",41.00,26.06,,,
"USR0000ABEV","1990-09-27",39.02,24.98,,,
"USR0000ABEV","1990-09-28",42.08,28.04,,,
"USR0000ABEV","1990-09-29",37.94,26.06,,,
"USR0000ABEV","1990-09-30",35.96,28.94,,,
"USR0000ABEV","1990-10-01",33.98,15.98,,,
"USR0000ABEV","1990-10-02",33.98,15.08,,,
"USR0000ABEV","1990-10-03",35.06,21.92,,,
"USR0000ABEV","1990-10-04",35.06,17.96,,,
"USR0000ABEV","1990-10-05",33.98,28.04,,,
"USR0000ABEV","1990-10-06",37.94,28.94,,,
"USR0000ABEV","1990-10-07",41.00,28.04,,,
"USR0000ABEV","1990-10-08",44.96,30.02,,,
"USR0000ABEV","1990-10-09",37.94,23.00,,,
"USR0000ABEV","1990-10-10",33.08,15.98,,,
"USR0000ABEV","1990-10-11",33.08,15.98,,,
"USR0000ABEV","1990-10-12",30.02,19.04,,,
"USR0000ABEV","1990-10-13",33.98,-4.00,,,
"USR0000ABEV","1990-10-14",24.98,-7.06,,,
"USR0000ABEV","1990-10-15",15.98,3.92,,,
"USR0000ABEV","1990-10-16",15.98,12.02,,,
"USR0000ABEV","1990-10-17",21.02,-5.08,,,
"USR0000ABEV","1990-10-18",15.98,-13.00,,,
"USR0000ABEV","1990-10-19",15.08,-0.04,,,
"USR0000ABEV","1990-10-20",26.06,-0.04,,,
"USR0000ABEV","1990-10-21",23.00,15.98,,,
"USR0000ABEV","1990-10-22",15.08,10.94,,,
"USR0000ABEV","1990-10-23",17.06,12.02,,,
"USR0000ABEV","1990-10-24",21.02,10.94,,,
"USR0000ABEV","1990-10-25",21.02,12.92,,,
"USR0000ABEV","1990-10-26",17.96,-7.96,,,
"USR0000ABEV","1990-10-27",14.00,6.98,,,
"USR0000ABEV","1990-10-28",15.08,12.02,,,
"USR0000ABEV","1990-10-29",17.96,5.00,,,
"USR0000ABEV","1990-10-30",19.94,3.92,,,
"USR0000ABEV","1990-10-31",8.96,-2.02,,,
"USR0000ABEV","1990-11-01",8.96,1.04,,,
"USR0000ABEV","1990-11-02",8.96,-14.08,,,
"USR0000ABEV","1990-11-03",28.04,-7.06,,,
"USR0000ABEV","1990-11-04",37.94,28.94,,,
"USR0000ABEV","1990-11-05",33.08,-2.92,,,
"USR0000ABEV","1990-11-06",8.96,-2.02,,,
"USR0000ABEV","1990-11-07",1.94,-2.92,,,
"USR0000ABEV","1990-11-08",-2.02,-5.08,,,
"USR0000ABEV","1990-11-09",-5.08,-25.96,,,
"USR0000ABEV","1990-11-10",-20.02,-36.94,,,
"USR0000ABEV","1991-05-16",64.94,55.04,,,
"USR0000ABEV","1991-05-19",44.96,44.06,,,
"USR0000ABEV","1991-05-20",62.96,57.92,,,
"USR0000ABEV","1991-05-22",64.94,42.08,,,
"USR0000ABEV","1991-05-24",55.94,48.92,,,
"USR0000ABEV","1991-05-25",53.06,48.02,,,
"USR0000ABEV","1991-05-26",39.92,35.06,,,
"USR0000ABEV","1991-05-29",71.96,69.08,,,
"USR0000ABEV","1991-05-30",69.08,68.00,,,
"USR0000ABEV","1991-06-03",71.96,69.08,,,
"USR0000ABEV","1991-06-04",75.02,53.96,,,
"USR0000ABEV","1991-06-05",73.94,39.92,,,
"USR0000ABEV","1991-06-06",73.04,37.04,,,
"USR0000ABEV","1991-06-07",66.02,46.94,,,
"USR0000ABEV","1991-06-08",60.08,44.06,,,
"USR0000ABEV","1991-06-09",50.00,33.08,,,
"USR0000ABEV","1991-06-10",53.06,33.08,,,
"USR0000ABEV","1991-06-11",68.00,37.94,,,
"USR0000ABEV","1991-06-12",66.02,44.96,,,
"USR0000ABEV","1991-06-13",69.98,44.96,,,
"USR0000ABEV","1991-06-14",68.00,50.00,,,
"USR0000ABEV","1991-06-15",60.98,48.92,,,
"USR0000ABEV","1991-06-16",66.02,46.94,,,
"USR0000ABEV","1991-06-17",71.06,46.94,,,
"USR0000ABEV","1991-06-18",78.08,39.92,,,
"USR0000ABEV","1991-06-19",80.96,48.92,,,
"USR0000ABEV","1991-06-20",87.98,46.04,,,
"USR0000ABEV","1991-06-21",91.04,48.92,,,
"USR0000ABEV","1991-06-22",91.04,51.98,,,
"USR0000ABEV","1991-06-23",86.00,55.94,,,
"USR0000ABEV","1991-06-24",78.98,51.08,,,
"USR0000ABEV","1991-06-25",75.92,48.02,,,
"USR0000ABEV","1991-06-26",78.08,53.96,,,
"USR0000ABEV","1991-06-27",80.96,48.02,,,
"USR0000ABEV","1991-06-28",82.04,42.98,,,
"USR0000ABEV","1991-06-29",89.06,44.96,,,
"USR0000ABEV","1991-06-30",91.04,48.92,,,
"USR0000ABEV","1991-07-01",78.08,50.00,,,
"USR0000ABEV","1991-07-02",75.92,57.92,,,
"USR0000ABEV","1991-07-03",75.92,50.00,,,
"USR0000ABEV","1991-07-04",60.98,50.00,,,
"USR0000ABEV","1991-07-05",68.00,37.94,,,
"USR0000ABEV","1991-07-06",78.98,33.08,,,
"USR0000ABEV","1991-07-07",80.96,42.08,,,
"USR0000ABEV","1991-07-08",60.08,35.96,,,
"USR0000ABEV","1991-07-09",60.98,42.98,,,
"USR0000ABEV","1991-07-10",55.04,42.08,,,
"USR0000ABEV","1991-07-11",62.06,39.92,,,
"USR0000ABEV","1991-07-12",60.98,46.04,,,
"USR0000ABEV","1991-07-13",69.08,41.00,,,
"USR0000ABEV","1991-07-14",73.04,39.92,,,
"USR0000ABEV","1991-07-15",68.00,39.92,,,
"USR0000ABEV","1991-07-16",69.98,42.08,,,
"USR0000ABEV","1991-07-17",69.08,50.00,,,
"USR0000ABEV","1991-07-18",69.08,51.08,,,
"USR0000ABEV","1991-07-19",66.92,37.04,,,
"USR0000ABEV","1991-07-20",69.98,37.04,,,
"USR0000ABEV","1991-07-21",69.08,53.96,,,
"USR0000ABEV","1991-07-22",77.00,59.00,,,
"USR0000ABEV","1991-07-23",80.96,48.92,,,
"USR0000ABEV","1991-07-24",73.04,44.96,,,
"USR0000ABEV","1991-07-25",68.00,42.08,,,
"USR0000ABEV","1991-07-26",73.94,39.02,,,
"USR0000ABEV","1991-07-27",75.02,44.96,,,
"USR0000ABEV","1991-07-28",73.04,44.06,,,
"USR0000ABEV","1991-07-29",68.00,39.02,,,
"USR0000ABEV","1991-07-30",73.04,33.98,,,
"USR0000ABEV","1991-07-31",71.96,44.06,,,
"USR0000ABEV","1991-08-01",71.96,48.02,,,
"USR0000ABEV","1991-08-02",57.02,33.98,,,
"USR0000ABEV","1991-08-03",69.08,30.92,,,
"USR0000ABEV","1991-08-04",66.92,48.02,,,
"USR0000ABEV","1991-08-05",69.08,50.00,,,
"USR0000ABEV","1991-08-06",57.92,51.98,,,
"USR0000ABEV","1991-08-07",64.04,44.96,,,
"USR0000ABEV","1991-08-08",60.08,39.02,,,
"USR0000ABEV","1991-08-09",66.92,35.96,,,
"USR0000ABEV","1991-08-10",69.08,37.94,,,
"USR0000ABEV","1991-08-11",73.94,44.96,,,
"USR0000ABEV","1991-08-12",73.94,39.92,,,
"USR0000ABEV","1991-08-13",71.96,33.98,,,
"USR0000ABEV","1991-08-14",68.00,44.96,,,
"USR0000ABEV","1991-08-15",71.06,42.98,,,
"USR0000ABEV","1991-08-16",71.06,42.98,,,
"USR0000ABEV","1991-08-17",60.98,41.00,,,
"USR0000ABEV","1991-08-18",60.98,41.00,,,
"USR0000ABEV","1991-08-19",64.04,26.96,,,
"USR0000ABEV","1991-08-20",68.00,24.08,,,
"USR0000ABEV","1991-08-21",69.98,24.98,,,
"USR0000ABEV","1991-08-22",62.06,51.98,,,
"USR0000ABEV","1991-08-23",57.02,41.00,,,
"USR0000ABEV","1991-08-24",53.96,30.02,,,
"USR0000ABEV","1991-08-25",48.02,28.94,,,
"USR0000ABEV","1991-08-26",48.92,30.02,,,
"USR0000ABEV","1991-08-27",51.98,21.02,,,
"USR0000ABEV","1991-08-28",57.02,17.96,,,
"USR0000ABEV","1991-08-29",59.00,17.96,,,
"USR0000ABEV","1991-08-30",62.06,19.94,,,
"USR0000ABEV","1991-08-31",60.98,23.00,,,
"USR0000ABEV","1991-09-01",62.96,24.08,,,
"USR0000ABEV","1991-09-02",68.00,24.98,,,
"USR0000ABEV","1991-09-03",68.00,21.92,,,
"USR0000ABEV","1991-09-04",71.06,24.98,,,
"USR0000ABEV","1991-09-05",57.02,39.02,,,
"USR0000ABEV","1991-09-06",48.02,30.92,,,
"USR0000ABEV","1991-09-07",46.94,15.08,,,
"USR0000ABEV","1991-09-08",37.94,15.08,,,
"USR0000ABEV","1991-09-09",37.94,32.00,,,
"USR0000ABEV","1991-09-10",48.02,37.94,,,
"USR0000ABEV","1991-09-11",48.92,39.92,,,
"USR0000ABEV","1991-09-12",41.00,37.04,,,
"USR0000ABEV","1991-09-13",46.04,33.98,,,
"USR0000ABEV","1991-09-14",57.92,28.94,,,
"USR0000ABEV","1991-09-15",60.98,30.02,,,
"USR0000ABEV","1991-09-16",55.94,28.94,,,
"USR0000ABEV","1991-09-17",60.08,28.04,,,
"USR0000ABEV","1991-09-18",60.98,28.94,,,
"USR0000ABEV","1991-09-19",60.08,28.94,,,
"USR0000ABEV","1991-09-20",51.98,30.02,,,
"USR0000ABEV","1991-09-21",55.94,24.98,,,
"USR0000ABEV","1991-09-22",55.04,24.08,,,
"USR0000ABEV","1991-09-23",46.04,30.92,,,
"USR0000ABEV","1991-09-24",55.04,28.94,,,
"USR0000ABEV","1991-09-25",59.00,28.94,,,
"USR0000ABEV","1991-09-26",46.04,26.06,,,
"USR0000ABEV","1991-09-27",42.08,37.04,,,
"USR0000ABEV","1991-09-28",53.96,23.00,,,
"USR0000ABEV","1991-09-29",46.94,19.94,,,
"USR0000ABEV","1991-09-30",48.02,21.92,,,
"USR0000ABEV","1991-10-01",46.04,26.06,,,
"USR0000ABEV","1991-10-02",55.04,28.04,,,
"USR0000ABEV","1991-10-03",46.94,23.00,,,
"USR0000ABEV","1991-10-04",46.94,28.04,,,
"USR0000ABEV","1991-10-05",46.94,26.96,,,
"USR0000ABEV","1991-10-06",37.94,15.98,,,
"USR0000ABEV","1991-10-07",35.96,21.02,,,
"USR0000ABEV","1991-10-08",32.00,23.00,,,
"USR0000ABEV","1991-10-09",24.98,19.94,,,
"USR0000ABEV","1991-10-10",33.98,1.04,,,
"USR0000ABEV","1991-10-11",17.06,-2.02,,,
"USR0000ABEV","1991-10-12",26.96,-2.02,,,
"USR0000ABEV","1991-10-13",24.08,-2.92,,,
"USR0000ABEV","1991-10-14",26.06,21.02,,,
"USR0000ABEV","1991-10-15",30.92,23.00,,,
"USR0000ABEV","1991-10-16",24.98,12.92,,,
"USR0000ABEV","1991-10-17",15.98,-18.94,,,
"USR0000ABEV","1991-10-18",8.96,-20.02,,,
"USR0000ABEV","1991-10-19",15.08,-9.94,,,
"USR0000ABEV","1991-10-20",23.00,-7.06,,,
"USR0000ABEV","1991-10-21",33.98,-0.94,,,
"USR0000ABEV","1991-10-22",37.94,28.94,,,
"USR0000ABEV","1991-10-23",33.08,5.00,,,
"USR0000ABEV","1991-10-24",21.92,-4.00,,,
"USR0000ABEV","1991-10-25",26.06,15.98,,,
"USR0000ABEV","1991-10-26",21.92,8.96,,,
"USR0000ABEV","1991-10-27",14.00,-14.08,,,
"USR0000ABEV","1991-10-28",5.00,-7.06,,,
"USR0000ABEV","1991-10-29",5.00,-7.96,,,
"USR0000ABEV","1991-10-30",10.94,-5.98,,,
"USR0000ABEV","1991-10-31",1.94,-20.92,,,
"USR0000ABEV","1991-11-01",3.02,-25.96,,,
"USR0000ABEV","1991-11-02",-0.04,-25.96,,,
"USR0000ABEV","1991-11-03",-18.94,-25.06,,,
"USR0000ABEV","1991-11-04",12.02,1.04,,,
"USR0000ABEV","1991-11-05",6.08,-16.96,,,
"USR0000ABEV","1991-11-06",3.92,-25.96,,,
"USR0000ABEV","1991-11-07",-11.02,-29.92,,,
"USR0000ABEV","1991-11-08",-11.92,-31.00,,,
"USR0000ABEV","1991-11-09",1.94,-27.94,,,
"USR0000ABEV","1991-11-10",-9.94,-32.08,,,
"USR0000ABEV","1991-11-11",-18.04,-32.08,,,
"USR0000ABEV","1991-11-12",-7.06,-11.92,,,
"USR0000ABEV","1992-06-02",60.08,50.00,,,
"USR0000ABEV","1992-06-03",69.08,48.02,,,
"USR0000ABEV","1992-06-04",55.04,32.00,,,
"USR0000ABEV","1992-06-05",62.96,30.02,,,
"USR0000ABEV","1992-06-06",59.00,39.02,,,
"USR0000ABEV","1992-06-07",59.00,30.02,,,
"USR0000ABEV","1992-06-08",71.96,28.04,,,
"USR0000ABEV","1992-06-09",71.06,35.96,,,
"USR0000ABEV","1992-06-10",73.04,41.00,,,
"USR0000ABEV","1992-06-11",84.92,37.94,,,
"USR0000ABEV","1992-06-12",86.00,46.94,,,
"USR0000ABEV","1992-06-13",84.92,48.02,,,
"USR0000ABEV","1992-06-14",73.04,51.08,,,
"USR0000ABEV","1992-06-15",77.00,44.96,,,
"USR0000ABEV","1992-06-16",73.94,53.06,,,
"USR0000ABEV","1992-06-17",64.94,41.00,,,
"USR0000ABEV","1992-06-18",73.04,37.94,,,
"USR0000ABEV","1992-06-19",75.02,48.92,,,
"USR0000ABEV","1992-06-20",77.00,46.94,,,
"USR0000ABEV","1992-06-21",80.96,48.92,,,
"USR0000ABEV","1992-06-22",62.06,48.02,,,
"USR0000ABEV","1992-06-23",69.98,48.92,,,
"USR0000ABEV","1992-06-24",73.04,46.04,,,
"USR0000ABEV","1992-06-25",75.92,42.08,,,
"USR0000ABEV","1992-06-26",73.04,44.06,,,
"USR0000ABEV","1992-06-27",78.08,46.04,,,
"USR0000ABEV","1992-06-28",89.06,44.96,,,
"USR0000ABEV","1992-06-29",91.94,50.00,,,
"USR0000ABEV","1992-06-30",71.06,59.00,,,
"USR0000ABEV","1992-07-01",73.94,44.06,,,
"USR0000ABEV","1992-07-02",80.96,41.00,,,
"USR0000ABEV","1992-07-03",86.00,46.94,,,
"USR0000ABEV","1992-07-04",71.96,55.04,,,
"USR0000ABEV","1992-07-05",71.96,50.00,,,
"USR0000ABEV","1992-07-06",73.04,48.92,,,
"USR0000ABEV","1992-07-07",73.04,39.02,,,
"USR0000ABEV","1992-07-08",80.96,41.00,,,
"USR0000ABEV","1992-07-09",77.00,46.04,,,
"USR0000ABEV","1992-07-10",75.92,55.94,,,
"USR0000ABEV","1992-07-11",73.94,53.96,,,
"USR0000ABEV","1992-07-12",71.96,53.06,,,
"USR0000ABEV","1992-07-13",51.08,44.96,,,
"USR0000ABEV","1992-07-14",68.00,42.98,,,
"USR0000ABEV","1992-07-15",77.00,39.92,,,
"USR0000ABEV","1992-07-16",77.00,39.92,,,
"USR0000ABEV","1992-07-17",78.98,39.92,,,
"USR0000ABEV","1992-07-18",84.02,41.00,,,
"USR0000ABEV","1992-07-19",75.02,48.02,,,
"USR0000ABEV","1992-07-20",69.08,48.02,,,
"USR0000ABEV","1992-07-21",73.94,42.98,,,
"USR0000ABEV","1992-07-22",78.08,41.00,,,
"USR0000ABEV","1992-07-23",77.00,51.08,,,
"USR0000ABEV","1992-07-24",75.02,51.98,,,
"USR0000ABEV","1992-07-25",78.08,51.98,,,
"USR0000ABEV","1992-07-26",78.08,51.98,,,
"USR0000ABEV","1992-07-27",71.96,48.02,,,
"USR0000ABEV","1992-07-28",75.92,44.96,,,
"USR0000ABEV","1992-07-29",68.00,41.00,,,
"USR0000ABEV","1992-07-30",73.94,39.02,,,
"USR0000ABEV","1992-07-31",77.00,42.98,,,
"USR0000ABEV","1992-08-01",80.96,42.98,,,
"USR0000ABEV","1992-08-02",78.08,50.00,,,
"USR0000ABEV","1992-08-03",77.00,44.06,,,
"USR0000ABEV","1992-08-04",73.04,44.06,,,
"USR0000ABEV","1992-08-05",75.92,51.98,,,
"USR0000ABEV","1992-08-06",75.02,48.02,,,
"USR0000ABEV","1992-08-07",69.98,46.94,,,
"USR0000ABEV","1992-08-08",66.92,50.00,,,
"USR0000ABEV","1992-08-09",62.96,46.94,,,
"USR0000ABEV","1992-08-10",73.94,44.06,,,
"USR0000ABEV","1992-08-11",71.96,41.00,,,
"USR0000ABEV","1992-08-12",69.98,42.08,,,
"USR0000ABEV","1992-08-13",64.04,41.00,,,
"USR0000ABEV","1992-08-14",60.98,42.98,,,
"USR0000ABEV","1992-08-15",69.08,44.06,,,
"USR0000ABEV","1992-08-16",66.02,35.96,,,
"USR0000ABEV","1992-08-17",55.04,42.98,,,
"USR0000ABEV","1992-08-18",55.94,33.08,,,
"USR0000ABEV","1992-08-19",64.94,26.96,,,
"USR0000ABEV","1992-08-20",66.92,30.02,,,
"USR0000ABEV","1992-08-21",62.96,42.98,,,
"USR0000ABEV","1992-08-22",68.00,39.92,,,
"USR0000ABEV","1992-08-23",64.94,33.98,,,
"USR0000ABEV","1992-08-24",73.04,39.92,,,
"USR0000ABEV","1992-08-25",62.06,37.04,,,
"USR0000ABEV","1992-08-26",51.08,33.08,,,
"USR0000ABEV","1992-08-27",62.06,44.96,,,
"USR0000ABEV","1992-08-28",60.98,26.96,,,
"USR0000ABEV","1992-08-29",60.08,26.96,,,
"USR0000ABEV","1992-08-30",62.06,30.92,,,
"USR0000ABEV","1992-08-31",55.94,41.00,,,
"USR0000ABEV","1992-09-01",57.02,28.04,,,
"USR0000ABEV","1992-09-02",57.92,26.96,,,
"USR0000ABEV","1992-09-03",57.92,30.92,,,
"USR0000ABEV","1992-09-04",60.98,23.00,,,
"USR0000ABEV","1992-09-05",60.08,42.98,,,
"USR0000ABEV","1992-09-06",57.92,37.94,,,
"USR0000ABEV","1992-09-07",57.92,24.98,,,
"USR0000ABEV","1992-09-08",57.02,41.00,,,
"USR0000ABEV","1992-09-09",42.98,23.00,,,
"USR0000ABEV","1992-09-10",39.92,21.02,,,
"USR0000ABEV","1992-09-11",39.92,26.06,,,
"USR0000ABEV","1992-09-12",39.92,21.02,,,
"USR0000ABEV","1992-09-13",42.08,17.06,,,
"USR0000ABEV","1992-09-14",33.98,19.94,,,
"USR0000ABEV","1992-09-15",35.96,10.04,,,
"USR0000ABEV","1992-09-16",39.02,1.04,,,
"USR0000ABEV","1992-09-17",35.06,-0.04,,,
"USR0000ABEV","1992-09-18",28.04,21.92,,,
"USR0000ABEV","1992-09-19",30.92,19.94,,,
"USR0000ABEV","1992-09-20",30.02,8.96,,,
"USR0000ABEV","1992-09-21",26.96,5.00,,,
"USR0000ABEV","1992-09-22",23.00,15.98,,,
"USR0000ABEV","1992-09-23",28.04,-7.06,,,
"USR0000ABEV","1992-09-24",30.02,-13.00,,,
"USR0000ABEV","1992-09-25",28.04,8.06,,,
"USR0000ABEV","1992-09-26",28.94,15.98,,,
"USR0000ABEV","1992-09-27",30.92,15.98,,,
"USR0000ABEV","1992-09-28",26.96,3.92,,,
"USR0000ABEV","1992-09-29",21.92,14.00,,,
"USR0000ABEV","1992-09-30",23.00,5.00,,,
"USR0000ABEV","1992-10-01",28.04,6.98,,,
"USR0000ABEV","1992-10-02",35.06,5.00,,,
"USR0000ABEV","1992-10-03",32.00,3.02,,,
"USR0000ABEV","1992-10-04",30.92,15.08,,,
"USR0000ABEV","1992-10-05",33.08,-5.98,,,
"USR0000ABEV","1992-10-06",37.04,3.92,,,
"USR0000ABEV","1992-10-07",37.04,19.94,,,
"USR0000ABEV","1992-10-08",35.96,26.06,,,
"USR0000ABEV","1992-10-09",37.04,26.96,,,
"USR0000ABEV","1992-10-10",30.92,24.08,,,
"USR0000ABEV","1992-10-11",28.94,14.00,,,
"USR0000ABEV","1992-10-12",26.96,10.04,,,
"USR0000ABEV","1992-10-13",26.96,1.04,,,
"USR0000ABEV","1992-10-14",21.02,1.04,,,
"USR0000ABEV","1992-10-15",17.06,-5.98,,,
"USR0000ABEV","1992-10-16",17.06,1.04,,,
"USR0000ABEV","1992-10-17",6.98,-20.02,,,
"USR0000ABEV","1992-10-18",5.00,-29.02,,,
"USR0000ABEV","1992-10-19",-0.04,-34.06,,,
"USR0000ABEV","1992-10-20",15.08,-13.00,,,
"USR0000ABEV","1992-10-21",12.02,-5.08,,,
"USR0000ABEV","1992-10-22",12.92,-7.96,,,
"USR0000ABEV","1992-10-23",15.08,-20.02,,,
"USR0000ABEV","1992-10-24",5.00,-23.08,,,
"USR0000ABEV","1992-10-25",12.92,-2.02,,,
"USR0000ABEV","1992-10-26",17.06,-2.02,,,
"USR0000ABEV","1992-10-27",24.08,5.00,,,
"USR0000ABEV","1992-10-28",26.96,8.06,,,
"USR0000ABEV","1992-10-29",8.96,-29.02,,,
"USR0000ABEV","1992-10-30",-14.08,-31.00,,,
"USR0000ABEV","1992-10-31",-9.04,-11.02,,,
"USR0000ABEV","1992-11-04",14.00,-5.08,,,
"USR0000ABEV","1992-11-06",19.94,17.06,,,
"USR0000ABEV","1993-05-19",55.94,46.04,,,
"USR0000ABEV","1993-05-20",60.08,32.00,,,
"USR0000ABEV","1993-05-21",42.98,26.06,,,
"USR0000ABEV","1993-05-22",46.04,30.02,,,
"USR0000ABEV","1993-05-23",62.96,23.00,,,
"USR0000ABEV","1993-05-24",55.94,44.06,,,
"USR0000ABEV","1993-05-25",71.06,33.98,,,
"USR0000ABEV","1993-05-26",62.06,42.98,,,
"USR0000ABEV","1993-05-27",66.92,39.02,,,
"USR0000ABEV","1993-05-28",71.06,35.06,,,
"USR0000ABEV","1993-05-29",69.08,48.02,,,
"USR0000ABEV","1993-05-30",71.06,44.06,,,
"USR0000ABEV","1993-05-31",62.06,35.06,,,
"USR0000ABEV","1993-06-01",75.02,39.92,,,
"USR0000ABEV","1993-06-02",80.06,44.96,,,
"USR0000ABEV","1993-06-03",82.94,39.92,,,
"USR0000ABEV","1993-06-04",86.00,41.00,,,
"USR0000ABEV","1993-06-05",80.06,69.08,,,
"USR0000ABEV","1993-06-06",69.08,48.92,,,
"USR0000ABEV","1993-06-07",68.00,42.98,,,
"USR0000ABEV","1993-06-08",71.06,42.98,,,
"USR0000ABEV","1993-06-09",66.92,37.94,,,
"USR0000ABEV","1993-06-10",71.06,33.98,,,
"USR0000ABEV","1993-06-11",73.04,46.04,,,
"USR0000ABEV","1993-06-12",73.04,41.00,,,
"USR0000ABEV","1993-06-13",77.00,37.94,,,
"USR0000ABEV","1993-06-14",78.08,42.08,,,
"USR0000ABEV","1993-06-15",82.94,39.02,,,
"USR0000ABEV","1993-06-16",80.96,57.92,,,
"USR0000ABEV","1993-06-17",78.98,57.02,,,
"USR0000ABEV","1993-06-18",75.02,53.96,,,
"USR0000ABEV","1993-06-19",66.92,48.02,,,
"USR0000ABEV","1993-06-20",69.08,44.06,,,
"USR0000ABEV","1993-06-21",69.98,50.00,,,
"USR0000ABEV","1993-06-22",69.98,39.92,,,
"USR0000ABEV","1993-06-23",73.94,35.96,,,
"USR0000ABEV","1993-06-24",73.04,42.98,,,
"USR0000ABEV","1993-06-25",75.02,46.94,,,
"USR0000ABEV","1993-06-26",66.92,51.08,,,
"USR0000ABEV","1993-06-27",71.06,44.06,,,
"USR0000ABEV","1993-06-28",77.00,41.00,,,
"USR0000ABEV","1993-06-29",82.94,48.92,,,
"USR0000ABEV","1993-06-30",84.02,51.98,,,
"USR0000ABEV","1993-07-01",82.04,55.94,,,
"USR0000ABEV","1993-07-02",80.96,51.98,,,
"USR0000ABEV","1993-07-03",78.08,53.96,,,
"USR0000ABEV","1993-07-04",77.00,48.92,,,
"USR0000ABEV","1993-07-05",75.02,53.96,,,
"USR0000ABEV","1993-07-06",73.94,51.98,,,
"USR0000ABEV","1993-07-07",66.92,50.00,,,
"USR0000ABEV","1993-07-08",71.96,50.00,,,
"USR0000ABEV","1993-07-09",75.02,46.04,,,
"USR0000ABEV","1993-07-10",77.00,46.04,,,
"USR0000ABEV","1993-07-11",78.98,42.08,,,
"USR0000ABEV","1993-07-12",86.00,53.06,,,
"USR0000ABEV","1993-07-13",89.06,57.02,,,
"USR0000ABEV","1993-07-14",91.94,50.00,,,
"USR0000ABEV","1993-07-15",91.94,51.98,,,
"USR0000ABEV","1993-07-16",86.00,69.08,,,
"USR0000ABEV","1993-07-17",78.98,59.00,,,
"USR0000ABEV","1993-07-18",82.94,80.06,,,
"USR0000ABEV","1993-07-19",82.04,57.92,,,
"USR0000ABEV","1993-07-20",68.00,41.00,,,
"USR0000ABEV","1993-07-21",75.02,44.06,,,